This is the latest recevied weather packets stored in our database for station/object IK2ILW-4. If no packets are shown the sender has not sent any weather packets the latest 1 day(s).
| Time | Temp. | Humidity | Pressure | Rain* | Wind** | Luminosity | Snow |
|---|---|---|---|---|---|---|---|
| 1836274159 | 16.11° C | 83% | 1030.3 hPa | 0 mm | 0 m/s | 0 W/m² | - |
| 1836274007 | 16.11° C | 83% | 1030.4 hPa | 0 mm | 0 m/s | 0 W/m² | - |
| 1778028472 | 6.11° C | 98% | 1012.6 hPa | 4.83 mm | 0 m/s | 0 W/m² | - |
| 1778028167 | 6.11° C | 98% | 1012.7 hPa | 4.32 mm | 0 m/s | 0 W/m² | - |
| 1778023955 | 6.67° C | 98% | 1013.2 hPa | 2.29 mm | 0 m/s | 0 W/m² | - |
| 1778023654 | 6.67° C | 98% | 1013.1 hPa | 2.29 mm | 0 m/s | 0 W/m² | - |
| 1778023370 | 6.67° C | 98% | 1013.1 hPa | 2.29 mm | 0 m/s | 0 W/m² | - |
| 1778023066 | 6.67° C | 98% | 1013.1 hPa | 2.29 mm | 0 m/s | 0 W/m² | - |
| 1778022762 | 6.67° C | 98% | 1013.2 hPa | 2.29 mm | 0 m/s | 0 W/m² | - |
| 1778022461 | 6.67° C | 98% | 1013.2 hPa | 2.29 mm | 0 m/s | 0 W/m² | - |
| 1778022157 | 6.67° C | 98% | 1013.2 hPa | 2.29 mm | 0 m/s | 0 W/m² | - |
| 1778021857 | 6.67° C | 98% | 1013.2 hPa | 1.78 mm | 0 m/s | 0 W/m² | - |
| 1778021557 | 6.67° C | 98% | 1013.2 hPa | 1.27 mm | 0 m/s | 0 W/m² | - |
| 1778021253 | 6.67° C | 98% | 1013.2 hPa | 1.27 mm | 0 m/s | 0 W/m² | - |
| 1778020973 | 6.67° C | 98% | 1013.3 hPa | 1.02 mm | 0 m/s | 0 W/m² | - |
| 1778020667 | 6.67° C | 98% | 1013.3 hPa | 0.76 mm | 0 m/s | 0 W/m² | - |
| 1778020364 | 6.67° C | 98% | 1013.3 hPa | 0.25 mm | 0 m/s | 0 W/m² | - |
| 1778020064 | 6.67° C | 98% | 1013.4 hPa | 0.25 mm | 0 m/s | 0 W/m² | - |
| 1778019769 | 6.67° C | 98% | 1013.4 hPa | 0.25 mm | 0 m/s | 0 W/m² | - |
| 1778019470 | 6.67° C | 98% | 1013.4 hPa | 0.25 mm | 0 m/s | 0 W/m² | - |
| 1778019168 | 6.67° C | 98% | 1013.5 hPa | 0 mm | 0 m/s | 0 W/m² | - |
| 1778018866 | 6.67° C | 98% | 1013.5 hPa | 0 mm | 0 m/s | 0 W/m² | - |
| 1778018565 | 6.67° C | 98% | 1013.5 hPa | 0 mm | 0 m/s | 0 W/m² | - |
| 1778018262 | 6.67° C | 98% | 1013.6 hPa | 12.45 mm | 0 m/s | 0 W/m² | - |
| 1778017959 | 6.67° C | 98% | 1013.6 hPa | 12.45 mm | 0 m/s | 0 W/m² | - |
* Rain since midnight (hover to see other rain measurements)
** Current wind speed in m/s (hover to see current wind gust speed)